Torna al catalogo

IRIDIUM 165

AttivoComunicazioniPO
NORAD 43572·PAYLOAD·🇺🇸 United States

Lanciato Jul 25, 2018 da Vandenberg Space Force Base

Loading…

Prossimi Passaggi (prossime 24 ore)

TLE

AggiornatoSource: CelesTrak SupGP

Epoca: Sep 14, 2026, 12:57 UTC

1 43572C 18061D   26257.53993056 -.00004081  00000+0 -14591-2 0  2572
2 43572  86.4013  19.4346 0002168  94.3575 355.1022 14.34220074    18

Traccia IRIDIUM 165 in tempo reale con AllMySat

Download on the App Store